Tyler, TX

2:49 AM CDT on March 26, 2017 (GMT -0500)
Tyler Pounds

Weather History for KTYR - January, 2013

Change the Weather History Date:

Wednesday, January 23, 2013

  Actual Average Record
Temperature  
Mean Temperature 60 °F 46 °F  
Max Temperature 73 °F 56 °F 85 °F (1943)
Min Temperature 46 °F 37 °F 6 °F (1940)
Degree Days  
Heating Degree Days 5 19  
Month to date heating degree days 415 437  
Since 1 July heating degree days 1151 1338  
Cooling Degree Days 0 0  
Month to date cooling degree days 0 0  
Year to date cooling degree days 0 0  
Growing Degree Days 10 (Base 50)    
Moisture  
Dew Point 49 °F    
Average Humidity 69    
Maximum Humidity 93    
Minimum Humidity 44    
Precipitation  
Precipitation 0.00 in 0.11 in 3.60 in (1938)
Month to date precipitation 3.15 2.25  
Year to date precipitation 3.15 2.25  
Snow  
Snow 0.00 in - - ()
Month to date snowfall T  
Since 1 July snowfall 1.0  
Snow Depth 0.00 in    
Sea Level Pressure  
Sea Level Pressure 30.25 in    
Wind  
Wind Speed 10 mph (South)    
Max Wind Speed 17 mph    
Max Gust Speed 21 mph    
Visibility 10 miles    
Events      
T = Trace of Precipitation, MM = Missing Value Source: NWS Daily Summary

Daily Weather History Graph

Daily Weather History Graph

Search for Another Location

Airport or City:

Trip Planner

Search our weather history database for the weather conditions in past years. The results will help you decide how hot, cold, wet, or windy it might be!

Date:

Astronomy

Jan. 23, 2013 Rise Set
Actual Time 7:20 AM CST 5:46 PM CST
Civil Twilight 6:54 AM CST 6:13 PM CST
Nautical Twilight 6:24 AM CST 6:42 PM CST
Astronomical Twilight 5:55 AM CST 7:12 PM CST
Moon 3:00 PM CST (1/23) 4:30 AM CST (1/23)
Length of Visible Light 11h 18m
Length of Day
10h 26m
Waxing Gibbous, 89% of the Moon is Illuminated
Jan 23
Waxing Gibbous
Jan 26
Full
Feb 3
Last Quarter
Feb 10
New
Feb 17
First Quarter

Hourly Weather History & Observations

Time (CST) Temp. Dew Point Humidity Pressure Visibility Wind Dir Wind Speed Gust Speed Precip Events Conditions
12:53 AM 51.1 °F 46.0 °F 83% 30.25 in 10.0 mi South 9.2 mph - N/A   Clear
1:53 AM 51.1 °F 46.0 °F 83% 30.25 in 10.0 mi South 9.2 mph - N/A   Clear
2:53 AM 50.0 °F 46.0 °F 86% 30.26 in 10.0 mi South 9.2 mph - N/A   Clear
3:53 AM 48.9 °F 45.0 °F 86% 30.26 in 10.0 mi South 8.1 mph - N/A   Clear
4:53 AM 48.0 °F 45.0 °F 89% 30.27 in 10.0 mi South 6.9 mph - N/A   Clear
5:53 AM 48.0 °F 45.0 °F 89% 30.29 in 10.0 mi South 6.9 mph - N/A   Mostly Cloudy
6:53 AM 48.0 °F 45.0 °F 89% 30.28 in 9.0 mi South 8.1 mph - N/A   Partly Cloudy
7:53 AM 48.0 °F 46.0 °F 93% 30.30 in 8.0 mi South 8.1 mph - N/A   Clear
8:53 AM 53.1 °F 48.9 °F 86% 30.30 in 10.0 mi South 10.4 mph - N/A   Clear
9:53 AM 59.0 °F 52.0 °F 78% 30.32 in 10.0 mi SSW 12.7 mph - N/A   Clear
10:53 AM 63.0 °F 53.1 °F 70% 30.32 in 10.0 mi SSW 13.8 mph - N/A   Clear
11:53 AM 68.0 °F 52.0 °F 56% 30.30 in 10.0 mi SW 12.7 mph - N/A   Clear
12:53 PM 69.1 °F 50.0 °F 51% 30.26 in 10.0 mi SSW 11.5 mph - N/A   Clear
1:53 PM 71.1 °F 48.0 °F 44% 30.23 in 10.0 mi SSW 9.2 mph - N/A   Clear
2:53 PM 72.0 °F 48.9 °F 44% 30.22 in 10.0 mi South 12.7 mph 19.6 mph N/A   Clear
3:53 PM 72.0 °F 50.0 °F 46% 30.20 in 10.0 mi SSW 13.8 mph - N/A   Clear
4:53 PM 71.1 °F 50.0 °F 47% 30.19 in 10.0 mi SSW 11.5 mph - N/A   Clear
5:53 PM 66.0 °F 50.0 °F 56% 30.19 in 10.0 mi South 8.1 mph - N/A   Clear
6:53 PM 63.0 °F 50.0 °F 63% 30.19 in 10.0 mi South 10.4 mph - N/A   Clear
7:53 PM 60.1 °F 50.0 °F 69% 30.19 in 10.0 mi South 8.1 mph - N/A   Clear
8:53 PM 60.1 °F 50.0 °F 69% 30.19 in 10.0 mi South 8.1 mph - N/A   Clear
9:53 PM 59.0 °F 51.1 °F 75% - 10.0 mi South 9.2 mph - N/A   Clear
10:53 PM 59.0 °F 51.1 °F 75% - 10.0 mi South 9.2 mph - N/A   Clear
11:53 PM 57.0 °F 51.1 °F 81% - 10.0 mi South 5.8 mph - N/A   Clear